Location: Bambrugge
(50.9212°N, 3.9299°E)
Time: 04:31:38
(UTC+00:00)

CZ-2C R/B - Pass Details

Date: 23 May 2024
Orbit: 703 x 904 km, 98.2° (Epoch: 21 June)

Event Time Altitude Azimuth Distance (km) Brightness Sun altitude
Rises 01:34:53 0° 17° (NNE) 3,539 8.2 -14.2°
Reaches altitude 10° 01:37:24 10° 23° (NNE) 2,597 7.2 -14.0°
Maximum altitude 01:43:04 50° 98° (E) 1,137 4.0 -13.6°
Enters shadow 01:48:29 11° 173° (S) 2,501 5.2 -13.1°
